GFSGBSN_con_lsi_108.txt.gz
Lid_Strength_Index
2 1 1 1 1 0 0 0 1 1 1 1 1 1 1 1 1 1 1 1 1 1 1 1 0 -0 3 9 9 5 -3 0 3 3 4 5 7 8 10 10 9 11 10 8 7 7 8
2 1 1 1 1 0 0 1 1 1 1 1 1 1 1 2 2 2 2 1 1 1 1 1 0 0 7 11 6 5 2 4 3 3 4 4 6 6 8 9 10 9 9 9 8 8 8
1 1 1 1 1 0 1 1 1 1 1 1 1 1 2 2 2 2 1 1 1 1 1 1 1 3 7 9 6 5 3 4 3 3 4 4 4 7 7 9 7 8 10 9 9 9 9
0 0 0 0 0 1 1 1 1 1 1 1 1 2 2 2 2 2 1 1 1 1 1 1 1 5 10 4 5 4 4 4 3 3 3 3 4 5 7 7 8 10 11 13 9 9 8
0 0 0 0 1 1 1 1 1 1 1 2 2 2 2 2 2 2 1 1 0 1 1 1 5 7 11 3 6 4 4 5 3 3 3 2 4 7 7 11 12 12 15 14 11 9 9
-0 0 0 1 1 1 1 1 1 1 1 2 2 2 2 2 2 2 2 2 0 2 2 2 4 12 9 8 6 4 5 4 5 4 5 6 8 10 11 12 17 15 15 13 13 10 9
0 0 0 1 1 1 1 1 2 1 1 1 1 2 2 2 2 2 5 10 11 11 8 11 10 9 8 6 5 6 4 5 5 7 10 9 11 13 11 11 11 12 13 14 11 9 10
-0 0 -0 0 1 1 1 1 1 1 1 1 1 2 2 2 2 3 7 9 9 8 13 8 7 7 6 6 8 7 5 8 8 10 9 11 13 10 8 9 10 11 13 13 11 10 11
-0 -0 -1 -1 -0 0 1 1 1 1 1 1 2 2 2 2 3 6 8 9 7 7 11 9 7 7 7 7 9 8 6 8 10 10 11 12 11 8 9 10 12 12 13 13 13 11 10
-1 -1 -1 -1 -1 -0 -0 0 1 1 1 1 1 2 2 3 7 8 8 7 7 6 14 12 9 8 7 7 10 6 5 7 9 11 10 11 9 10 10 11 11 14 11 11 12 14 18
-1 -1 -1 -1 -1 -1 -0 -0 0 0 0 1 1 2 2 3 9 9 7 6 6 9 19 11 10 7 9 9 9 8 6 7 10 11 11 13 12 11 11 10 10 12 10 11 12 14 16
-1 -1 -1 -1 -1 -1 -1 -0 -0 -0 0 0 1 1 2 6 8 7 6 6 8 14 19 12 10 12 12 10 10 9 10 9 9 12 12 11 9 9 10 8 9 8 11 12 14 15 19
-1 -1 -1 -1 -1 -1 -1 -1 -1 -0 -0 -0 1 1 3 5 9 7 6 9 15 17 12 13 13 13 13 13 12 12 13 14 15 17 17 14 12 10 8 12 11 10 14 19 20 20 20
-1 -1 -1 -1 -1 -1 -1 -1 -1 -1 -1 0 1 2 4 5 6 6 9 13 18 14 14 12 13 13 15 13 13 13 14 15 14 14 17 18 17 12 10 12 13 13 14 18 22 21 19
-1 -1 -1 -1 -1 -1 -1 -1 -1 -1 -0 1 4 9 8 6 5 7 12 16 16 14 12 14 14 16 16 14 14 15 15 15 15 14 17 17 17 11 10 10 10 13 15 13 16 17 18
-0 -1 -1 -1 -1 -1 -1 -1 -1 -1 -0 3 8 9 9 5 6 10 13 14 14 12 12 13 17 15 18 16 16 16 16 14 14 13 13 15 18 13 11 10 10 11 10 17 16 21 22
0 0 -1 -1 -1 -1 -1 -1 -1 -1 -0 3 10 13 9 6 8 11 14 14 12 11 11 14 15 15 15 16 16 17 16 14 13 13 13 15 16 16 13 14 15 14 15 13 14 16 21
-0 0 0 -0 -1 -0 -1 -1 -1 -1 1 6 12 15 9 8 12 14 14 12 10 12 12 12 13 13 15 15 16 16 16 14 12 13 16 14 17 18 16 13 12 13 15 13 17 18 17
-0 -0 0 1 1 0 -0 -1 -1 -0 3 8 13 13 8 9 14 14 13 12 11 12 13 13 13 12 13 15 17 15 15 12 13 14 17 15 17 20 19 15 14 14 14 14 13 15 17
1 -0 -0 -0 1 1 1 -0 -0 -0 2 9 12 15 11 11 12 12 14 13 13 11 12 12 13 13 14 15 14 16 16 13 13 12 9 12 17 18 21 18 16 15 14 14 15 18 19
2 0 -0 -0 0 1 1 1 0 -0 2 9 13 13 11 13 12 13 13 12 13 14 12 13 14 13 15 18 17 16 15 16 14 12 15 16 19 18 17 15 15 15 14 14 15 16 18
3 2 1 -0 -0 0 1 1 1 1 3 10 14 14 12 12 11 13 12 13 13 13 13 13 15 14 15 16 15 16 16 18 17 16 18 17 20 18 18 15 15 15 13 13 14 15 15
3 2 3 0 -0 0 1 1 1 2 4 9 11 11 11 11 12 13 13 12 13 12 13 13 14 15 16 15 14 14 15 15 16 16 18 18 19 19 20 17 16 17 15 14 15 14 15
3 3 3 3 3 0 0 1 2 3 2 9 11 9 12 14 12 12 11 11 12 13 13 13 14 15 13 12 14 15 16 16 16 16 16 19 18 19 20 18 20 15 13 13 14 12 12
2 3 3 3 3 3 0 0 1 3 2 9 10 10 11 16 13 12 11 12 12 13 14 14 14 13 13 14 17 18 17 17 16 16 17 17 18 19 21 20 17 15 14 14 15 15 11
0 3 4 3 2 3 3 3 1 2 3 4 9 10 13 16 16 11 12 13 15 15 14 13 13 14 13 16 17 19 19 18 18 17 17 16 16 18 19 21 21 16 14 14 14 17 12
0 1 2 3 3 3 3 2 2 1 2 3 8 8 11 15 15 12 13 13 13 13 14 15 13 15 15 18 19 19 19 16 18 18 19 19 19 20 20 21 18 14 13 14 19 16 12
1 1 1 2 2 2 2 2 2 1 1 2 6 7 9 14 14 11 10 12 13 13 14 14 14 16 17 18 19 18 18 17 17 17 17 18 20 20 19 20 20 13 14 17 15 14 12
-1 -1 -0 0 1 3 3 2 2 1 1 1 6 6 9 11 13 9 9 10 10 10 12 15 14 15 15 17 17 17 17 17 17 18 16 17 15 17 16 16 13 12 13 13 13 13 13

GFSGBSN_con_lsi_111.txt.gz
Lid_Strength_Index
2 2 2 1 1 0 0 -0 0 1 1 1 1 1 1 1 1 1 1 1 1 1 0 1 0 -0 3 7 7 5 -3 1 3 2 3 4 6 6 8 8 8 9 9 8 7 6 6
2 2 2 1 1 0 0 0 1 1 1 1 1 1 1 2 2 2 1 1 1 1 1 1 0 0 6 9 5 4 3 3 3 2 3 4 5 5 7 8 8 8 8 7 7 7 7
1 1 1 1 0 0 0 0 1 1 1 1 1 1 2 2 2 2 1 1 1 1 1 1 1 3 6 7 5 4 4 4 3 2 3 3 4 5 6 8 7 7 9 8 7 7 7
0 0 0 0 0 0 0 1 1 1 1 1 1 2 2 2 2 1 1 1 1 1 1 1 1 4 9 4 4 4 3 3 2 2 2 2 3 5 6 6 8 10 9 12 8 7 7
0 0 -0 0 0 1 1 1 1 1 1 2 2 2 2 2 2 1 1 1 0 1 1 1 4 6 9 3 6 4 3 4 3 3 2 2 4 6 6 9 11 10 13 12 11 8 8
-0 -0 0 0 -0 0 0 1 1 1 1 1 2 1 2 2 1 1 2 1 0 2 2 2 4 9 8 8 6 5 3 3 4 4 5 5 7 8 9 10 15 14 13 12 12 9 9
-0 -0 0 0 -0 0 1 1 1 1 1 1 1 1 2 2 2 1 5 9 10 10 8 9 9 9 8 6 5 6 4 5 5 7 9 7 9 11 10 9 9 10 12 13 10 8 10
-1 -0 0 -0 -0 0 1 1 1 2 1 1 1 1 2 2 2 2 6 8 8 8 11 7 7 7 6 6 8 7 5 7 7 9 8 10 11 9 8 8 10 10 12 12 10 9 10
-1 -1 -0 -0 -0 0 1 1 1 1 1 1 1 1 2 2 3 6 8 8 7 6 11 9 7 7 7 6 8 8 6 7 8 9 10 11 10 8 9 9 10 10 12 12 12 10 10
-1 -1 -1 -1 -1 -0 0 1 1 1 1 1 1 1 2 2 6 7 8 6 6 5 13 11 9 8 7 6 9 6 6 7 8 10 10 11 9 10 10 10 10 13 9 10 12 13 15
-1 -1 -1 -1 -1 -1 -1 -0 0 0 0 1 1 1 2 3 8 8 7 6 5 8 18 11 9 7 9 9 9 8 7 7 10 10 10 13 12 11 10 10 9 11 9 11 11 13 13
-1 -1 -1 -1 -1 -1 -1 -0 -0 -0 -0 0 0 1 2 6 7 7 6 6 8 14 17 12 10 12 11 11 11 9 10 9 9 12 12 11 10 9 9 8 8 8 10 11 12 13 17
-1 -1 -1 -1 -1 -1 -1 -1 -1 -0 -0 -0 0 1 3 4 9 6 6 9 14 17 12 13 13 12 13 13 12 12 12 13 14 16 16 14 12 10 8 10 9 10 13 18 18 19 19
-1 -1 -1 -1 -1 -1 -1 -1 -1 -0 -0 0 1 3 5 4 5 5 8 13 16 14 13 11 13 13 14 13 13 13 13 14 13 14 16 16 16 12 10 10 11 12 13 18 22 21 18
-0 -1 -1 -1 -1 -1 -1 -1 -1 -1 -0 1 4 9 8 6 5 7 11 15 15 14 12 13 13 15 15 14 14 14 14 14 13 13 15 16 16 12 10 10 9 11 14 11 16 15 18
0 0 0 -1 -1 -1 -1 -1 -1 -1 -0 3 8 10 10 5 5 9 12 13 13 11 11 12 16 14 16 15 15 15 15 13 13 12 12 14 17 13 12 9 10 10 9 15 15 21 21
-0 -0 0 0 -0 -0 -1 -1 -1 -1 0 4 11 13 10 5 8 11 13 14 12 10 10 13 14 15 15 14 15 15 15 13 12 12 12 14 15 15 13 13 13 12 13 12 13 15 19
2 0 -0 1 1 1 -0 -1 -1 -1 2 6 12 15 9 8 12 14 13 12 9 11 10 11 12 13 14 14 15 15 15 13 13 12 15 13 15 17 15 13 12 11 12 12 15 16 15
1 2 2 0 1 2 1 -0 -1 0 2 9 13 14 8 9 14 14 12 11 10 11 12 12 12 12 12 14 15 15 14 12 12 13 14 14 16 19 18 14 13 13 12 12 12 13 15
1 2 2 2 0 1 2 0 -0 0 3 8 13 15 11 10 12 12 13 12 12 10 11 11 12 12 13 14 13 15 14 12 13 12 9 11 16 17 19 18 15 15 14 13 13 15 15
0 1 2 3 3 2 2 2 0 0 3 8 13 14 12 13 12 12 12 11 12 12 11 11 13 13 14 16 15 16 14 14 14 12 14 15 18 17 16 16 15 15 15 14 14 14 14
-0 2 2 3 3 3 1 2 1 1 3 9 14 15 13 13 11 12 11 12 12 12 12 13 14 13 14 16 14 15 15 16 16 15 16 16 18 17 18 15 15 16 14 13 13 13 14
1 1 2 3 3 3 1 2 2 3 4 8 11 11 11 11 12 12 13 12 11 11 11 11 12 14 15 14 14 13 13 14 14 15 17 17 18 17 19 17 16 16 14 14 14 13 13
-1 -1 1 3 3 3 2 1 1 3 3 8 11 9 11 14 12 12 10 10 11 11 12 12 13 14 13 13 13 14 15 15 15 15 15 18 17 17 18 17 19 15 12 13 13 13 12
-1 -1 -1 1 3 3 3 1 1 3 3 8 10 9 12 15 12 11 10 10 11 11 13 13 13 12 12 14 16 17 17 16 16 16 16 16 17 18 18 18 16 15 14 14 14 14 11
-1 -1 -1 0 2 3 3 1 0 2 3 4 10 9 11 14 15 10 10 11 12 13 13 13 12 12 13 15 16 18 18 17 17 16 16 16 16 17 18 19 19 15 13 12 12 15 12
-1 -1 -1 -1 2 2 1 2 2 2 2 3 7 9 11 14 13 11 11 11 10 12 14 14 14 13 14 16 17 18 18 16 17 17 18 18 18 19 19 18 16 13 12 13 16 14 12
-1 -1 -1 -1 -0 1 2 2 2 2 2 2 5 7 9 14 14 11 10 11 11 12 14 14 13 15 16 17 17 18 19 17 17 16 17 17 18 19 19 19 19 12 13 15 12 12 11
-1 -1 -1 -1 -1 0 1 2 2 2 2 1 6 6 7 10 13 10 9 9 10 9 12 15 14 15 15 17 18 17 17 17 16 17 15 16 15 16 16 15 12 12 12 11 11 11 11

GFSGBSN_con_lsi_117.txt.gz
Lid_Strength_Index
1 1 2 2 2 1 1 0 0 -0 -1 -1 -0 0 1 1 1 1 1 0 0 -0 -0 -0 0 -0 1 4 5 2 0 -0 1 1 2 3 4 5 6 5 5 6 5 5 5 5 5
1 1 1 1 1 1 1 0 -0 -0 -0 0 1 1 1 1 1 1 1 0 0 0 0 0 0 0 2 7 2 2 2 2 2 2 2 3 4 3 5 5 6 5 5 5 5 5 5
1 1 1 1 1 1 1 0 -0 -0 0 1 1 1 1 1 1 1 1 1 0 0 0 0 0 1 4 5 2 1 2 2 2 2 3 2 2 4 4 6 4 5 7 6 6 5 6
-0 1 1 1 1 1 1 0 -0 -0 1 1 1 1 2 1 1 1 1 1 1 1 1 1 0 2 6 2 1 2 2 2 2 1 2 1 2 3 4 4 5 7 7 10 6 6 6
-0 -0 0 0 0 0 0 0 -0 -0 1 1 1 1 2 2 2 1 1 1 0 1 1 0 1 3 6 3 4 3 2 4 3 2 2 2 2 4 4 7 8 8 11 10 9 6 6
-1 -1 -0 -0 -0 -0 -0 -0 -0 0 1 1 1 1 1 1 1 1 1 1 1 2 1 1 3 6 5 6 4 3 2 3 4 4 4 4 4 6 6 7 12 11 11 10 10 7 7
-1 -1 -1 -1 -0 0 -0 -1 -0 0 1 1 1 1 1 1 1 2 3 3 5 6 4 6 6 7 6 4 3 4 3 4 4 5 8 6 7 9 8 7 7 8 9 10 8 7 8
-1 -1 -1 -1 -0 -0 -0 -0 -0 1 1 1 1 1 1 1 2 2 3 5 5 4 7 5 5 5 4 4 6 5 3 6 7 8 7 8 9 7 7 6 7 8 9 10 8 7 8
-1 -1 -1 -1 -1 -0 -1 -1 -0 0 1 1 1 1 1 2 2 3 3 5 3 3 6 6 5 5 5 5 7 6 5 6 8 9 9 10 8 7 8 7 8 8 9 10 10 8 8
-0 -1 -1 -1 -1 -1 -1 -1 -1 -0 1 1 1 1 1 2 4 3 4 3 2 2 8 8 7 5 5 6 7 5 6 7 7 9 9 9 8 9 8 8 8 10 8 9 10 10 13
-0 -0 -1 -1 -1 -1 -1 -1 -1 -0 0 1 1 1 2 2 3 4 3 1 1 2 14 8 7 5 6 7 7 7 6 7 9 9 9 10 10 9 9 9 7 9 7 9 9 10 11
0 -0 -0 -0 -1 -1 -1 -1 -1 -1 0 1 1 2 2 3 3 3 1 1 2 9 14 9 7 9 9 8 8 7 8 6 7 9 9 10 8 8 8 7 7 6 8 9 9 10 15
1 0 -0 0 0 -1 -0 -1 -1 -0 -0 0 1 2 3 4 4 1 1 2 9 12 8 9 9 9 9 10 9 10 10 10 11 12 12 10 10 9 8 9 7 7 10 16 16 16 15
0 1 0 0 1 -0 -0 -1 -1 -1 -0 -0 1 2 4 4 1 1 2 6 11 9 9 8 9 9 10 10 10 10 10 10 10 10 11 13 14 11 9 9 10 9 10 16 22 18 16
1 1 1 1 0 1 -0 -0 -1 -1 -0 0 1 3 5 3 1 1 4 9 9 8 7 9 10 10 10 10 10 10 11 11 10 10 13 13 13 10 9 8 8 9 11 9 15 14 17
1 1 1 2 1 1 1 -0 -1 -0 -0 0 3 5 6 1 1 2 6 8 7 6 7 8 10 9 11 11 11 11 11 10 11 10 10 11 14 11 11 8 8 9 7 13 12 20 18
1 1 1 2 2 2 1 -0 -1 -0 0 1 4 8 4 0 1 5 9 7 7 6 6 8 9 10 10 10 10 11 11 10 10 10 10 11 12 12 11 11 11 9 10 9 11 12 16
1 1 0 1 2 3 2 2 1 -0 1 3 5 11 3 1 8 8 9 7 6 7 7 8 8 8 9 9 10 11 11 10 9 10 12 11 12 13 13 10 9 10 10 10 12 13 12
-0 -0 -1 -0 1 2 2 1 2 3 3 3 8 8 3 3 11 10 7 8 7 7 7 8 8 8 8 9 11 10 11 10 10 11 11 10 12 14 14 11 11 12 11 11 10 10 12
-0 -1 -1 -1 -1 1 3 3 2 3 4 3 7 11 6 6 6 8 9 8 9 6 7 7 7 7 8 10 9 11 11 10 10 10 10 10 11 13 14 13 12 13 12 11 12 12 11
-1 -1 -1 -1 -1 0 2 3 2 2 3 5 7 10 8 10 9 8 8 8 9 10 7 7 8 8 9 10 11 12 10 11 11 10 11 11 12 12 12 12 12 13 13 13 13 11 12
-1 -1 -1 -1 -1 -1 1 3 3 3 3 5 8 10 8 9 8 9 9 9 9 8 8 9 9 8 8 9 9 11 10 10 10 11 11 11 13 13 13 12 12 13 12 12 11 11 10
-1 -1 -1 -1 -1 -1 0 1 3 4 3 7 5 6 8 9 9 9 9 9 8 7 7 7 8 8 9 8 7 7 7 8 9 11 11 12 13 13 14 12 12 13 11 11 11 10 10
-1 -1 -1 -1 -1 -1 -1 1 2 3 4 4 4 6 10 12 9 10 9 8 8 7 8 7 6 7 6 6 7 7 8 10 10 10 10 12 13 13 14 12 15 11 9 9 10 10 9
-1 -1 -1 -1 -1 -1 -1 -1 1 2 2 4 6 7 9 11 10 10 9 8 8 6 7 7 6 5 6 7 9 10 11 11 12 12 12 11 12 14 15 13 11 11 10 11 11 11 9
-1 -1 -1 -1 -1 -1 -1 -1 -1 2 3 3 4 5 7 10 10 9 9 8 9 8 8 7 7 5 5 7 8 11 12 11 13 13 12 11 12 13 13 15 15 11 10 9 9 12 8
-1 -1 -1 -1 -1 -1 -1 -1 -1 1 2 3 4 5 8 10 7 8 10 9 6 7 8 8 8 8 6 8 10 11 11 9 12 13 14 14 13 15 14 14 11 8 10 9 14 11 9
-1 -1 -1 -1 -1 -1 -1 -1 -1 -1 0 2 4 5 6 9 8 8 8 9 7 6 8 8 9 8 8 9 9 10 10 10 10 10 12 13 13 14 13 14 15 8 10 12 8 8 8
-1 -1 -1 -1 -1 -1 -1 -1 -1 -1 -1 1 4 5 4 7 8 8 8 8 7 5 6 7 7 8 6 8 8 8 10 9 9 12 9 12 10 11 11 10 7 7 7 7 7 7 7

GFSGBSN_con_lsi_120.txt.gz
Lid_Strength_Index
1 1 1 1 1 2 1 1 1 0 -0 -1 -1 -0 0 1 1 1 1 0 -0 -0 -0 -0 -0 -0 1 4 6 2 -2 -2 1 2 3 4 5 5 7 6 6 7 6 5 5 5 5
0 1 1 1 1 2 2 1 1 0 -0 -0 -0 0 1 1 1 1 1 0 0 -0 -0 -0 -0 0 2 6 3 2 2 2 2 2 3 3 5 4 5 6 7 6 6 6 5 5 5
-0 0 1 1 1 1 1 1 1 0 -0 -0 0 1 1 1 1 1 1 1 0 -0 0 0 0 1 3 5 2 2 2 2 2 2 3 3 3 4 4 6 4 5 8 7 6 6 6
-0 -0 0 1 1 1 1 1 0 -0 0 0 1 1 1 1 1 1 1 1 -0 1 1 0 0 2 5 2 1 2 2 3 2 2 2 1 2 4 5 4 6 8 8 11 7 6 6
-1 -1 -1 -0 0 0 1 1 0 -0 -0 1 1 1 1 1 1 1 1 1 -0 0 0 0 2 3 6 2 4 3 2 4 3 3 2 2 3 5 5 8 9 9 12 11 9 6 7
-1 -1 -1 -1 -0 -0 0 -0 -0 -1 -0 1 1 1 1 1 1 1 1 1 -0 1 1 1 2 6 5 6 4 3 2 3 4 4 5 5 5 7 8 9 14 12 11 10 10 8 8
-1 -1 -1 -1 -1 -1 -0 -0 -1 -0 -0 0 1 1 1 1 1 1 2 3 5 6 4 6 6 7 6 4 3 4 3 4 4 5 8 7 9 10 9 8 8 8 9 10 9 7 9
-1 -1 -1 -1 -1 -1 -0 -0 -1 -1 -0 0 1 1 1 1 2 2 3 5 5 4 7 5 5 6 5 4 7 5 3 7 7 9 8 9 10 9 8 8 8 8 10 11 9 7 9
-1 -0 -0 -1 -1 -1 -1 -0 -1 -1 -0 1 1 1 1 1 2 4 3 4 3 3 6 7 6 6 5 5 7 6 6 7 9 9 9 11 9 8 9 9 9 9 10 11 12 9 8
1 -1 -0 -0 -1 -1 -1 -1 -1 -1 -1 -0 1 1 1 1 3 3 4 2 2 2 9 9 7 6 5 6 8 5 5 7 8 9 9 10 9 9 9 9 9 11 8 9 10 12 15
1 1 -0 -0 0 -0 -1 -1 -1 -1 -0 -0 1 1 2 2 4 4 3 1 1 2 15 8 7 5 6 7 7 7 5 7 10 10 9 10 10 10 10 10 8 10 7 9 10 12 12
2 1 1 1 -0 0 1 -0 -0 -1 -0 0 0 1 2 4 4 3 2 1 2 10 15 9 7 8 9 8 7 7 7 6 7 9 9 10 9 9 10 9 8 7 9 9 10 12 17
2 2 1 1 1 0 0 1 -0 -1 -1 0 0 0 2 4 5 2 1 3 10 13 7 9 9 9 9 9 9 9 10 10 11 13 12 11 11 9 8 10 7 8 11 19 19 19 19
3 2 2 1 1 1 0 0 1 -0 -1 -0 1 1 1 4 3 2 3 7 14 9 9 7 8 9 10 9 9 9 10 11 10 11 12 14 15 11 10 9 11 10 11 18 22 22 19
3 2 2 1 1 2 1 0 1 0 -0 0 1 3 4 4 4 2 6 11 10 8 7 9 9 11 10 10 10 10 10 11 11 11 13 14 13 10 10 9 9 10 13 10 16 15 19
2 2 2 2 1 2 3 2 1 1 0 1 4 5 6 4 2 4 8 10 8 6 6 7 10 9 11 10 11 10 11 10 11 10 10 11 15 11 11 9 8 10 9 14 15 21 21
1 1 2 2 1 1 2 2 1 1 1 1 4 8 4 2 3 6 11 10 7 6 6 8 9 9 9 10 10 10 11 10 9 10 10 11 13 13 11 12 12 11 12 11 12 14 19
0 1 0 0 -0 -0 0 2 3 1 2 3 6 11 4 1 8 9 11 8 6 6 6 7 7 7 8 9 10 10 10 10 9 10 12 11 13 15 13 11 10 11 12 12 15 16 14
0 0 0 0 -0 -0 -1 0 2 2 4 5 9 8 3 3 12 12 10 9 7 7 7 8 8 7 7 8 10 9 9 8 9 10 11 11 13 16 15 13 11 13 12 12 13 13 15
-0 -1 -0 -0 -1 -1 -1 -1 1 3 3 5 10 13 8 6 7 10 11 10 9 6 6 7 7 7 8 9 8 10 10 9 9 9 8 9 13 14 16 14 13 14 12 13 14 16 14
-1 -1 -1 -1 -1 -1 -1 -1 0 3 2 5 8 12 10 13 11 9 9 9 9 9 7 7 8 8 9 10 10 10 9 10 10 8 10 11 14 12 12 12 13 13 13 13 15 14 16
-2 -2 -1 -1 -1 -1 -1 -1 -1 3 3 6 9 11 10 11 11 10 9 10 9 9 8 9 9 8 8 10 9 11 10 10 11 11 11 11 14 14 14 12 12 14 13 12 13 13 13
-2 -1 -1 -1 -1 -1 -1 -1 -1 1 3 5 5 5 8 11 12 11 12 10 9 8 7 7 7 8 9 8 7 7 7 8 9 11 12 13 14 14 16 13 13 15 13 12 12 11 12
-1 -1 -1 -1 -1 -1 -1 -1 -1 0 2 4 5 6 8 12 12 13 10 10 9 8 8 7 7 7 6 7 7 8 9 9 9 10 10 13 13 13 16 14 18 13 11 11 11 11 10
-1 -1 -1 -1 -1 -1 -1 -1 -1 -1 1 3 3 5 7 11 11 11 11 9 8 8 7 7 6 5 6 7 10 11 12 11 11 10 11 11 13 15 17 16 13 12 11 12 13 12 10
-1 -1 -1 -1 -1 -1 -1 -1 -1 -1 -0 3 4 4 5 10 10 9 10 10 10 9 8 8 6 5 6 8 9 13 14 12 14 13 11 11 12 14 15 18 18 13 11 10 10 15 10
-1 -1 -1 -1 -1 -1 -1 -1 -1 -1 -1 1 4 3 6 8 7 8 10 11 9 8 9 9 8 8 6 9 11 13 12 9 14 14 15 15 15 16 16 16 13 10 11 10 16 13 11
-1 -1 -1 -1 -1 -1 -1 -1 -1 -1 -1 0 2 3 5 8 7 6 6 8 9 8 9 9 9 9 10 11 11 11 12 11 11 11 13 13 15 16 15 16 17 10 12 13 10 10 9
-1 -1 -1 -1 -1 -1 -1 -1 -1 -1 -1 -0 3 2 2 5 7 5 5 4 8 9 8 8 8 9 8 9 9 9 11 10 11 13 10 13 10 12 12 12 9 9 10 9 8 9 9